DW2213 Weather Reports


time (UTC)temp
F
wind
direction
speed
knots
gust
knots
rain 1hr
in
rain 24hr
in
rain mn
in
humidity
%
barometer
mb
20260502202803 67 110 0.9 4.3 0.00 0.01 0.01 82 1015.9
20260502202305 67 110 2.6 4.3 0.00 0.01 0.01 82 1015.8
20260502201304 67 109 1.7 4.3 0.00 0.01 0.01 81 1015.9
20260502200804 67 108 1.7 4.3 0.00 0.01 0.01 81 1015.9
20260502200304 67 103 2.6 6.1 0.00 0.01 0.01 81 1015.8
20260502195804 67 115 1.7 5.2 0.00 0.01 0.01 81 1016.0
20260502194803 67 122 0.9 4.3 0.00 0.01 0.01 81 1015.9
20260502194303 67 118 3.5 7.0 0.00 0.01 0.01 81 1015.7
20260502193804 67 97 3.5 7.0 0.00 0.01 0.01 81 1015.7
20260502192804 67 116 4.3 7.8 0.00 0.01 0.01 81 1015.6
20260502191804 67 128 4.3 7.0 0.00 0.01 0.01 80 1015.4
20260502190804 68 105 5.2 10.4 0.00 0.01 0.01 80 1015.5
20260502190304 68 146 5.2 10.4 0.00 0.01 0.01 80 1015.5
20260502185803 68 115 3.5 7.0 0.00 0.01 0.01 80 1015.3
20260502185305 68 94 4.3 6.1 0.00 0.01 0.01 79 1015.4
20260502184304 68 74 5.2 7.8 0.00 0.01 0.01 78 1015.4
20260502183804 68 115 4.3 7.8 0.00 0.01 0.01 78 1015.6
20260502183303 68 83 5.2 7.8 0.00 0.01 0.01 78 1015.5
20260502182804 68 93 5.2 7.8 0.00 0.01 0.01 78 1015.7
20260502181803 69 81 5.2 10.4 0.00 0.01 0.01 78 1016.0
20260502181303 69 88 5.2 10.4 0.00 0.01 0.01 78 1016.0
20260502180804 69 57 5.2 7.0 0.00 0.01 0.01 78 1016.0
20260502180304 69 115 4.3 7.8 0.00 0.01 0.01 78 1016.1
20260502170305 70 93 5.2 7.8 0.00 0.01 0.01 77 1016.0
20260502164305 71 143 5.2 10.4 0.00 0.01 0.01 75 1016.2
20260502163805 71 122 5.2 10.4 0.00 0.01 0.01 76 1016.1
20260502163305 71 108 3.5 7.0 0.00 0.01 0.01 75 1016.2
20260502162805 71 130 4.3 7.0 0.00 0.01 0.01 75 1016.1
20260502162305 71 77 4.3 7.8 0.00 0.01 0.01 76 1016.0
20260502161805 71 94 4.3 10.4 0.00 0.01 0.01 75 1016.1
20260502161304 71 108 6.1 7.8 0.00 0.01 0.01 75 1016.2
20260502160805 71 20 4.3 10.4 0.00 0.01 0.01 75 1016.0
20260502160304 70 131 5.2 10.4 0.00 0.01 0.01 76 1016.2
20260502152305 72 127 4.3 7.8 0.00 0.01 0.01 72 1016.6
20260502151304 72 130 5.2 10.4 0.00 0.01 0.01 71 1016.7
20260502150804 73 116 4.3 12.2 0.00 0.01 0.01 72 1016.8
20260502150305 72 118 5.2 10.4 0.00 0.01 0.01 72 1016.9
20260502123804 71 130 5.2 10.4 0.00 0.01 0.01 76 1018.3
20260502123304 71 108 6.1 8.7 0.00 0.01 0.01 76 1018.5
20260502122805 71 116 7.0 12.2 0.00 0.01 0.01 76 1018.6
20260502122306 72 113 5.2 7.8 0.00 0.01 0.01 76 1018.6
20260502121805 72 159 7.8 12.2 0.00 0.01 0.01 76 1018.5
20260502121305 72 139 5.2 10.4 0.00 0.01 0.01 76 1018.6
20260502120805 72 72 7.0 10.4 0.00 0.01 0.01 76 1018.6
20260502120305 72 100 7.8 10.4 0.00 0.01 0.01 76 1018.4
20260502115805 72 132 7.0 10.4 0.00 0.01 0.01 76 1018.5
20260502115306 72 131 7.0 10.4 0.00 0.01 0.01 76 1018.5
20260502114805 72 86 6.1 10.4 0.00 0.01 0.01 77 1018.4
20260502114304 71 116 6.1 10.4 0.00 0.01 0.01 77 1018.5
20260502113805 71 105 7.8 11.3 0.00 0.01 0.01 77 1018.5
20260502113304 71 106 6.1 10.4 0.00 0.01 0.01 78 1018.6
20260502112805 70 124 5.2 10.4 0.00 0.01 0.01 79 1018.7
20260502112306 70 117 4.3 7.0 0.00 0.01 0.01 79 1019.0
20260502111805 70 107 5.2 7.8 0.00 0.01 0.01 79 1019.0
20260502111305 71 119 5.2 10.4 0.00 0.01 0.01 78 1019.0
20260502110805 71 102 5.2 8.7 0.00 0.01 0.01 78 1019.0
20260502110304 71 83 5.2 11.3 0.00 0.01 0.01 78 1019.0
20260502105805 70 107 5.2 10.4 0.00 0.01 0.01 78 1019.0
20260502104804 70 77 2.6 6.1 0.00 0.01 0.01 78 1019.3
20260502103805 71 131 3.5 7.0 0.00 0.01 0.01 78 1019.2
20260502103304 71 79 5.2 7.8 0.00 0.01 0.01 78 1019.2
20260502102804 71 89 4.3 7.8 0.00 0.01 0.01 78 1019.2
20260502102306 71 128 4.3 7.8 0.00 0.01 0.01 78 1019.2
20260502101804 70 109 3.5 7.0 0.00 0.01 0.01 79 1019.2
20260502101305 70 111 5.2 7.0 0.00 0.01 0.01 79 1019.2
20260502100805 70 64 3.5 6.1 0.00 0.01 0.01 80 1019.2
20260502090804 68 107 0.0 1.7 0.01 0.01 0.01 83 1019.5
20260502090305 68 107 1.7 2.6 0.01 0.01 0.01 84 1019.6
20260502071304 67 162 0.9 2.6 0.00 0.00 0.00 86 1019.7
20260502070804 67 161 0.0 1.7 0.00 0.00 0.00 86 1019.7
20260502070304 67 161 0.9 1.7 0.00 0.00 0.00 86 1019.6
20260502065804 66 161 0.9 1.7 0.00 0.00 0.00 87 1019.6
20260502065306 66 162 1.7 2.6 0.00 0.00 0.00 87 1019.6
20260502064805 66 162 0.0 0.9 0.00 0.00 0.00 88 1019.6
20260502063804 65 162 0.0 1.7 0.00 0.00 0.00 89 1019.7
20260502063304 65 162 0.0 0.9 0.00 0.00 0.00 89 1019.6
20260502062804 65 161 0.0 0.9 0.00 0.00 0.00 89 1019.7
20260502062306 65 161 0.0 2.6 0.00 0.00 0.00 89 1019.9
20260502061805 65 161 0.0 1.7 0.00 0.00 0.00 89 1020.0
20260502061304 64 161 0.0 2.6 0.00 0.00 0.00 89 1019.8
20260502060804 64 161 0.0 0.0 0.00 0.00 0.00 89 1019.7
20260502060305 64 161 0.9 1.7 0.00 0.00 0.00 89 1019.7
20260502055804 64 161 0.0 2.6 0.00 0.00 0.00 89 1019.6
20260502055306 64 161 0.9 2.6 0.00 0.00 0.00 89 1019.5
20260502054804 64 161 0.0 1.7 0.00 0.00 0.00 89 1019.4
20260502053304 64 161 0.0 1.7 0.00 0.02 0.00 89 1019.4
20260502051804 64 162 0.9 2.6 0.00 0.02 0.00 88 1019.4
20260502051304 64 162 0.0 2.6 0.00 0.02 0.00 88 1019.2
20260502050804 64 162 0.0 0.9 0.00 0.02 0.00 88 1019.3
20260502050305 64 162 0.9 1.7 0.00 0.02 0.00 88 1019.2
20260502045804 64 162 0.0 0.9 0.00 0.02 0.00 88 1019.2
20260502045306 64 162 0.0 0.0 0.00 0.02 0.00 89 1019.2
20260502044804 64 162 0.0 0.0 0.00 0.02 0.00 89 1019.2
20260502044305 64 162 0.0 0.0 0.00 0.02 0.00 89 1019.2
20260502043804 64 162 0.0 0.0 0.00 0.02 0.00 89 1019.3
20260502043304 64 162 0.0 0.0 0.00 0.02 0.00 89 1019.3
20260502042804 64 161 0.0 0.0 0.00 0.02 0.00 89 1019.4
20260502042306 64 161 0.0 1.7 0.00 0.02 0.00 89 1019.4
20260502041804 64 161 0.9 2.6 0.00 0.02 0.00 89 1019.4
20260502041304 64 162 0.9 2.6 0.00 0.02 0.00 89 1019.4
20260502040304 64 162 0.0 2.6 0.00 0.02 0.00 89 1019.4
20260502035804 64 161 0.0 2.6 0.00 0.02 0.00 89 1019.6
20260502034804 64 161 0.9 2.6 0.00 0.02 0.00 89 1019.7
20260502034304 64 161 0.9 2.6 0.00 0.02 0.00 89 1019.7
20260502033805 64 161 0.0 1.7 0.00 0.02 0.00 89 1019.7
20260502033304 64 161 0.9 2.6 0.00 0.02 0.00 89 1019.8
20260502032804 64 161 0.0 1.7 0.00 0.02 0.00 89 1019.8
20260502032306 64 161 0.0 0.0 0.00 0.02 0.00 89 1019.8
20260502031804 64 161 0.0 1.7 0.00 0.02 0.00 89 1019.8
20260502031304 64 161 0.9 2.6 0.00 0.02 0.00 89 1019.8
20260502030804 64 161 0.0 0.9 0.00 0.02 0.00 89 1019.8
20260502030304 64 161 0.0 0.0 0.00 0.02 0.00 89 1019.8
20260502025306 64 161 0.0 0.0 0.00 0.02 0.00 89 1019.7
20260502024805 64 161 0.0 0.0 0.00 0.02 0.00 89 1019.7
20260502024304 64 161 0.0 0.0 0.00 0.02 0.00 89 1019.6
20260502023304 64 161 0.0 0.0 0.00 0.02 0.00 89 1019.7
20260502022804 64 161 0.0 0.0 0.00 0.02 0.00 89 1019.7
20260502022306 64 161 0.0 0.9 0.00 0.02 0.00 89 1019.7
20260502021304 64 161 0.0 0.0 0.00 0.02 0.00 89 1019.8
20260502020804 64 161 0.0 0.0 0.00 0.02 0.00 89 1019.8
20260502020304 64 161 0.0 0.9 0.00 0.02 0.00 89 1019.9
20260502015305 64 161 0.0 0.0 0.00 0.02 0.00 89 1019.9
20260502014804 64 161 0.0 0.9 0.00 0.02 0.00 89 1019.9
20260502014304 64 161 0.0 0.9 0.00 0.02 0.00 88 1019.9
20260502013803 64 161 0.0 0.0 0.00 0.02 0.00 88 1019.9
20260502013304 64 161 0.9 4.3 0.00 0.02 0.00 88 1019.9
20260502012804 64 162 1.7 4.3 0.00 0.02 0.00 88 1020.0
20260502011804 64 161 0.0 2.6 0.00 0.02 0.00 88 1020.1
20260502011304 64 162 1.7 4.3 0.00 0.02 0.00 88 1020.2
20260502010304 64 161 1.7 4.3 0.00 0.02 0.00 88 1020.3
20260502005804 64 115 0.0 0.9 0.00 0.02 0.00 88 1020.4
20260502005306 64 115 0.9 1.7 0.00 0.02 0.00 88 1020.4
20260502004804 64 115 0.0 0.9 0.00 0.02 0.00 88 1020.4
20260502004304 64 115 0.0 0.9 0.00 0.02 0.00 88 1020.5
20260502003804 64 115 0.0 0.9 0.00 0.02 0.00 88 1020.4
20260502003304 64 115 0.0 0.0 0.00 0.02 0.00 88 1020.4
20260502002804 64 115 0.9 1.7 0.00 0.02 0.00 88 1020.4
20260502002305 64 115 0.0 0.0 0.00 0.02 0.00 88 1020.6
20260502001804 64 115 0.0 0.0 0.00 0.02 0.00 88 1020.6
20260502001304 64 115 0.0 1.7 0.00 0.02 0.00 88 1020.7
20260502000804 64 115 0.9 1.7 0.00 0.02 0.00 88 1020.9
20260502000303 64 115 0.0 1.7 0.00 0.02 0.00 88 1020.9
20260501235804 64 115 0.0 0.0 0.00 0.02 0.00 88 1021.0
20260501235305 64 115 0.9 2.6 0.00 0.02 0.00 88 1021.0
20260501234804 64 115 0.9 1.7 0.00 0.02 0.00 88 1021.0
20260501234304 64 115 0.0 0.0 0.00 0.02 0.00 88 1021.0
20260501233804 64 115 0.0 0.0 0.00 0.02 0.00 88 1021.0
20260501233304 64 115 0.0 0.0 0.00 0.02 0.00 88 1021.2
20260501232804 64 115 0.9 1.7 0.00 0.02 0.00 88 1021.2
20260501232306 64 115 0.9 1.7 0.00 0.02 0.00 88 1021.3
20260501231804 64 115 0.0 1.7 0.00 0.02 0.00 88 1021.3
20260501231304 64 115 0.0 0.9 0.00 0.02 0.00 88 1021.3
20260501230804 64 115 0.9 1.7 0.00 0.02 0.00 87 1021.2
20260501230304 64 115 0.0 0.0 0.00 0.02 0.00 87 1021.1
20260501225804 64 115 0.0 0.0 0.00 0.02 0.00 87 1021.1
20260501225306 64 115 0.0 0.0 0.00 0.02 0.00 87 1021.1
20260501224804 64 115 0.0 0.0 0.00 0.02 0.00 87 1021.1
20260501224303 64 115 0.0 0.0 0.00 0.02 0.00 87 1021.2
20260501223804 64 115 0.0 0.9 0.00 0.02 0.00 86 1021.2
20260501223304 64 115 0.9 1.7 0.00 0.02 0.00 86 1021.2
20260501222305 65 115 0.0 0.0 0.00 0.02 0.00 86 1021.1
20260501221804 65 115 0.0 0.0 0.00 0.02 0.00 86 1021.2
20260501221304 65 115 0.0 0.0 0.00 0.02 0.00 86 1021.3
20260501220818 65 115 0.0 0.0 0.00 0.02 0.00 85 1021.3
20260501220305 65 115 0.0 0.0 0.00 0.02 0.00 85 1021.4
20260501215804 65 115 0.0 0.0 0.00 0.02 0.02 85 1021.4
20260501214804 65 115 0.0 0.0 0.00 0.02 0.02 85 1021.5
20260501214304 65 115 0.0 0.0 0.00 0.02 0.02 85 1021.5
20260501213804 65 115 0.0 0.0 0.00 0.02 0.02 85 1021.5
20260501213304 65 115 0.0 0.0 0.00 0.02 0.02 85 1021.5
20260501212306 65 115 0.0 0.0 0.00 0.02 0.02 85 1021.5
20260501211304 66 115 0.9 1.7 0.00 0.02 0.02 85 1021.6
20260501210804 66 115 0.0 0.9 0.00 0.02 0.02 84 1021.7
20260501210304 66 115 0.0 1.7 0.00 0.02 0.02 84 1021.7
20260501205306 66 115 0.9 1.7 0.00 0.02 0.02 84 1021.7
20260501204804 66 115 0.0 1.7 0.00 0.02 0.02 84 1021.7
20260501204304 66 115 0.0 1.7 0.00 0.02 0.02 84 1021.7
20260501203804 66 115 0.0 0.9 0.00 0.02 0.02 84 1021.6
20260501203304 67 115 0.0 1.7 0.00 0.02 0.02 84 1021.6